sat.trackr.live / text

‹ back to catalog

STARLINK-32206

NORAD 60273 · 2024-131U

PAYLOAD ACTIVE UNKNOWN

§ Identity

Operator
Country
US
Launch date
2024-07-27
Launch site
AFETR
Launch vehicle
Mass (kg)
RCS (m²)

Purposes: comms

External: N2YO · Heavens-Above · Gunter

§ Orbital elements

Epoch: 2026-05-25T03:53:36.140640Z

Period
94.11 min
Inclination
53.1612°
Eccentricity
0.0001318
Mean motion
15.30196232 rev/d
Perigee alt
474.3 km
Apogee alt
476.1 km
Semi-major
6,853.4 km
B*
5.0723e-5
RAAN
57.4637°
Arg perigee
84.0076°
Mean anomaly
276.1075°
Rev number
10,342

§ Raw data

STARLINK-322061 60273U 24131U   26145.16222385  .00001143  00000+0  50723-4 0  99952 60273  53.1612  57.4637 0001318  84.0076 276.1075 15.30196232103428

JSON: /api/v1/satellites/60273 · /tle

For live sub-satellite position, see the globe view (requires WebGL).

§ Visibility from observer

Set your observer location to see the next 7 days of passes ≥ 10°. The values pass through the URL so the page stays shareable.

No JS? Fill the form by hand. The geolocation button needs JavaScript.